Year,Month,Day,Hour,Minute,Value (Times are PST for temperature in C)
2018,08,21,00,00,16.30
2018,08,21,00,01,16.20
2018,08,21,00,02,16.20
2018,08,21,00,03,16.20
2018,08,21,00,04,16.20
2018,08,21,00,05,16.20
2018,08,21,00,06,16.20
2018,08,21,00,07,16.20
2018,08,21,00,08,16.20
2018,08,21,00,09,16.20
2018,08,21,00,10,16.20
2018,08,21,00,11,16.20
2018,08,21,00,12,16.20
2018,08,21,00,13,16.20
2018,08,21,00,14,16.20
2018,08,21,00,15,16.20
2018,08,21,00,16,16.20
2018,08,21,00,17,16.20
2018,08,21,00,18,16.20
2018,08,21,00,19,16.20
2018,08,21,00,20,16.20
2018,08,21,00,21,16.20
2018,08,21,00,22,16.20
2018,08,21,00,23,16.20
2018,08,21,00,24,16.20
2018,08,21,00,25,16.30
2018,08,21,00,26,16.30
2018,08,21,00,27,16.30
2018,08,21,00,28,16.30
2018,08,21,00,29,16.30
2018,08,21,00,30,16.30
2018,08,21,00,31,16.30
2018,08,21,00,32,16.20
2018,08,21,00,33,16.20
2018,08,21,00,34,16.20
2018,08,21,00,35,16.20
2018,08,21,00,36,16.20
2018,08,21,00,37,16.20
2018,08,21,00,38,16.20
2018,08,21,00,39,16.10
2018,08,21,00,40,16.10
2018,08,21,00,41,16.10
2018,08,21,00,42,16.10
2018,08,21,00,43,16.10
2018,08,21,00,44,16.10
2018,08,21,00,45,16.10
2018,08,21,00,46,16.10
2018,08,21,00,47,16.10
2018,08,21,00,48,16.00
2018,08,21,00,49,16.00
2018,08,21,00,50,16.00
2018,08,21,00,51,16.00
2018,08,21,00,52,16.00
2018,08,21,00,53,16.00
2018,08,21,00,54,16.00
2018,08,21,00,55,16.00
2018,08,21,00,56,16.00
2018,08,21,00,57,16.00
2018,08,21,00,58,16.00
2018,08,21,00,59,16.00
2018,08,21,01,00,16.00
2018,08,21,01,01,16.00
2018,08,21,01,02,15.90
2018,08,21,01,03,15.90
2018,08,21,01,04,15.90
2018,08,21,01,05,15.90
2018,08,21,01,06,15.90
2018,08,21,01,07,15.90
2018,08,21,01,08,15.90
2018,08,21,01,09,15.90
2018,08,21,01,10,15.90
2018,08,21,01,11,15.90
2018,08,21,01,12,15.80
2018,08,21,01,13,15.80
2018,08,21,01,14,15.80
2018,08,21,01,15,15.80
2018,08,21,01,16,15.80
2018,08,21,01,17,15.80
2018,08,21,01,18,15.80
2018,08,21,01,19,15.70
2018,08,21,01,20,15.70
2018,08,21,01,21,15.70
2018,08,21,01,22,15.70
2018,08,21,01,23,15.60
2018,08,21,01,24,15.60
2018,08,21,01,25,15.60
2018,08,21,01,26,15.60
2018,08,21,01,27,15.60
2018,08,21,01,28,15.50
2018,08,21,01,29,15.50
2018,08,21,01,30,15.50
2018,08,21,01,31,15.40
2018,08,21,01,32,15.40
2018,08,21,01,33,15.40
2018,08,21,01,34,15.40
2018,08,21,01,35,15.40
2018,08,21,01,36,15.40
2018,08,21,01,37,15.30
2018,08,21,01,38,15.30
2018,08,21,01,39,15.30
2018,08,21,01,40,15.30
2018,08,21,01,41,15.30
2018,08,21,01,42,15.20
2018,08,21,01,43,15.20
2018,08,21,01,44,15.20
2018,08,21,01,45,15.20
2018,08,21,01,46,15.20
2018,08,21,01,47,15.20
2018,08,21,01,48,15.20
2018,08,21,01,49,15.20
2018,08,21,01,50,15.20
2018,08,21,01,51,15.20
2018,08,21,01,52,15.20
2018,08,21,01,53,15.20
2018,08,21,01,54,15.10
2018,08,21,01,55,15.10
2018,08,21,01,56,15.10
2018,08,21,01,57,15.10
2018,08,21,01,58,15.00
2018,08,21,01,59,15.00
2018,08,21,02,00,15.00
2018,08,21,02,01,15.00
2018,08,21,02,02,15.00
2018,08,21,02,03,14.90
2018,08,21,02,04,14.90
2018,08,21,02,05,14.90
2018,08,21,02,06,14.90
2018,08,21,02,07,14.90
2018,08,21,02,08,14.80
2018,08,21,02,09,14.80
2018,08,21,02,10,14.80
2018,08,21,02,11,14.80
2018,08,21,02,12,14.80
2018,08,21,02,13,14.80
2018,08,21,02,14,14.80
2018,08,21,02,15,14.70
2018,08,21,02,16,14.70
2018,08,21,02,17,14.70
2018,08,21,02,18,14.70
2018,08,21,02,19,14.70
2018,08,21,02,20,14.60
2018,08,21,02,21,14.60
2018,08,21,02,22,14.60
2018,08,21,02,23,14.60
2018,08,21,02,24,14.60
2018,08,21,02,25,14.60
2018,08,21,02,26,14.60
2018,08,21,02,27,14.50
2018,08,21,02,28,14.50
2018,08,21,02,29,14.50
2018,08,21,02,30,14.50
2018,08,21,02,31,14.50
2018,08,21,02,32,14.40
2018,08,21,02,33,14.40
2018,08,21,02,34,14.40
2018,08,21,02,35,14.40
2018,08,21,02,36,14.40
2018,08,21,02,37,14.40
2018,08,21,02,38,14.40
2018,08,21,02,39,14.30
2018,08,21,02,40,14.30
2018,08,21,02,41,14.30
2018,08,21,02,42,14.30
2018,08,21,02,43,14.30
2018,08,21,02,44,14.30
2018,08,21,02,45,14.30
2018,08,21,02,46,14.30
2018,08,21,02,47,14.30
2018,08,21,02,48,14.30
2018,08,21,02,49,14.30
2018,08,21,02,50,14.20
2018,08,21,02,51,14.20
2018,08,21,02,52,14.20
2018,08,21,02,53,14.20
2018,08,21,02,54,14.20
2018,08,21,02,55,14.20
2018,08,21,02,56,14.20
2018,08,21,02,57,14.20
2018,08,21,02,58,14.20
2018,08,21,02,59,14.10
2018,08,21,03,00,14.10
2018,08,21,03,01,14.10
2018,08,21,03,02,14.10
2018,08,21,03,03,14.10
2018,08,21,03,04,14.10
2018,08,21,03,05,14.10
2018,08,21,03,06,14.10
2018,08,21,03,07,14.10
2018,08,21,03,08,14.10
2018,08,21,03,09,14.10
2018,08,21,03,10,14.10
2018,08,21,03,11,14.10
2018,08,21,03,12,14.10
2018,08,21,03,13,14.10
2018,08,21,03,14,14.10
2018,08,21,03,15,14.10
2018,08,21,03,16,14.00
2018,08,21,03,17,14.00
2018,08,21,03,18,14.00
2018,08,21,03,19,14.00
2018,08,21,03,20,14.00
2018,08,21,03,21,14.00
2018,08,21,03,22,13.90
2018,08,21,03,23,13.90
2018,08,21,03,24,13.90
2018,08,21,03,25,13.90
2018,08,21,03,26,13.90
2018,08,21,03,27,13.90
2018,08,21,03,28,13.90
2018,08,21,03,29,13.80
2018,08,21,03,30,13.80
2018,08,21,03,31,13.80
2018,08,21,03,32,13.80
2018,08,21,03,33,13.80
2018,08,21,03,34,13.80
2018,08,21,03,35,13.80
2018,08,21,03,36,13.80
2018,08,21,03,37,13.70
2018,08,21,03,38,13.70
2018,08,21,03,39,13.70
2018,08,21,03,40,13.70
2018,08,21,03,41,13.70
2018,08,21,03,42,13.70
2018,08,21,03,43,13.70
2018,08,21,03,44,13.80
2018,08,21,03,45,13.80
2018,08,21,03,46,13.80
2018,08,21,03,47,13.80
2018,08,21,03,48,13.80
2018,08,21,03,49,13.80
2018,08,21,03,50,13.80
2018,08,21,03,51,13.80
2018,08,21,03,52,13.80
2018,08,21,03,53,13.80
2018,08,21,03,54,13.90
2018,08,21,03,55,13.80
2018,08,21,03,56,13.80
2018,08,21,03,57,13.80
2018,08,21,03,58,13.80
2018,08,21,03,59,13.80
2018,08,21,04,00,13.80
2018,08,21,04,01,13.80
2018,08,21,04,02,13.80
2018,08,21,04,03,13.80
2018,08,21,04,04,13.80
2018,08,21,04,05,13.80
2018,08,21,04,06,13.80
2018,08,21,04,07,13.80
2018,08,21,04,08,13.80
2018,08,21,04,09,13.80
2018,08,21,04,10,13.80
2018,08,21,04,11,13.80
2018,08,21,04,12,13.80
2018,08,21,04,13,13.80
2018,08,21,04,14,13.80
2018,08,21,04,15,13.80
2018,08,21,04,16,13.80
2018,08,21,04,17,13.80
2018,08,21,04,18,13.80
2018,08,21,04,19,13.80
2018,08,21,04,20,13.80
2018,08,21,04,21,13.80
2018,08,21,04,22,13.80
2018,08,21,04,23,13.80
2018,08,21,04,24,13.80
2018,08,21,04,25,13.80
2018,08,21,04,26,13.80
2018,08,21,04,27,13.80
2018,08,21,04,28,13.70
2018,08,21,04,29,13.70
2018,08,21,04,30,13.70
2018,08,21,04,31,13.70
2018,08,21,04,32,13.70
2018,08,21,04,33,13.70
2018,08,21,04,34,13.60
2018,08,21,04,35,13.70
2018,08,21,04,36,13.60
2018,08,21,04,37,13.60
2018,08,21,04,38,13.60
2018,08,21,04,39,13.60
2018,08,21,04,40,13.60
2018,08,21,04,41,13.60
2018,08,21,04,42,13.60
2018,08,21,04,43,13.60
2018,08,21,04,44,13.60
2018,08,21,04,45,13.60
2018,08,21,04,46,13.50
2018,08,21,04,47,13.50
2018,08,21,04,48,13.50
2018,08,21,04,49,13.50
2018,08,21,04,50,13.40
2018,08,21,04,51,13.40
2018,08,21,04,52,13.40
2018,08,21,04,53,13.40
2018,08,21,04,54,13.40
2018,08,21,04,55,13.40
2018,08,21,04,56,13.40
2018,08,21,04,57,13.30
2018,08,21,04,58,13.30
2018,08,21,04,59,13.30
2018,08,21,05,00,13.30
2018,08,21,05,01,13.30
2018,08,21,05,02,13.30
2018,08,21,05,03,13.30
2018,08,21,05,04,13.20
2018,08,21,05,05,13.20
2018,08,21,05,06,13.20
2018,08,21,05,07,13.20
2018,08,21,05,08,13.20
2018,08,21,05,09,13.20
2018,08,21,05,10,13.10
2018,08,21,05,11,13.10
2018,08,21,05,12,13.10
2018,08,21,05,13,13.10
2018,08,21,05,14,13.10
2018,08,21,05,15,13.10
2018,08,21,05,16,13.10
2018,08,21,05,17,13.00
2018,08,21,05,18,13.00
2018,08,21,05,19,13.00
2018,08,21,05,20,13.00
2018,08,21,05,21,13.00
2018,08,21,05,22,12.90
2018,08,21,05,23,12.90
2018,08,21,05,24,12.90
2018,08,21,05,25,12.90
2018,08,21,05,26,12.90
2018,08,21,05,27,12.90
2018,08,21,05,28,12.90
2018,08,21,05,29,12.80
2018,08,21,05,30,12.80
2018,08,21,05,31,12.80
2018,08,21,05,32,12.80
2018,08,21,05,33,12.80
2018,08,21,05,34,12.80
2018,08,21,05,35,12.80
2018,08,21,05,36,12.80
2018,08,21,05,37,12.70
2018,08,21,05,38,12.70
2018,08,21,05,39,12.70
2018,08,21,05,40,12.70
2018,08,21,05,41,12.70
2018,08,21,05,42,12.60
2018,08,21,05,43,12.60
2018,08,21,05,44,12.60
2018,08,21,05,45,12.60
2018,08,21,05,46,12.60
2018,08,21,05,47,12.60
2018,08,21,05,48,12.50
2018,08,21,05,49,12.50
2018,08,21,05,50,12.50
2018,08,21,05,51,12.50
2018,08,21,05,52,12.50
2018,08,21,05,53,12.40
2018,08,21,05,54,12.40
2018,08,21,05,55,12.40
2018,08,21,05,56,12.40
2018,08,21,05,57,12.40
2018,08,21,05,58,12.40
2018,08,21,05,59,12.40
2018,08,21,06,00,12.30
2018,08,21,06,01,12.30
2018,08,21,06,02,12.30
2018,08,21,06,03,12.30
2018,08,21,06,04,12.30
2018,08,21,06,05,12.30
2018,08,21,06,06,12.30
2018,08,21,06,07,12.30
2018,08,21,06,08,12.30
2018,08,21,06,09,12.30
2018,08,21,06,10,12.30
2018,08,21,06,11,12.30
2018,08,21,06,12,12.30
2018,08,21,06,13,12.30
2018,08,21,06,14,12.30
2018,08,21,06,15,12.30
2018,08,21,06,16,12.30
2018,08,21,06,17,12.30
2018,08,21,06,18,12.30
2018,08,21,06,19,12.30
2018,08,21,06,20,12.30
2018,08,21,06,21,12.30
2018,08,21,06,22,12.30
2018,08,21,06,23,12.30
2018,08,21,06,24,12.30
2018,08,21,06,25,12.30
2018,08,21,06,26,12.30
2018,08,21,06,27,12.30
2018,08,21,06,28,12.30
2018,08,21,06,29,12.30
2018,08,21,06,30,12.30
2018,08,21,06,31,12.30
2018,08,21,06,32,12.30
2018,08,21,06,33,12.30
2018,08,21,06,34,12.30
2018,08,21,06,35,12.30
2018,08,21,06,36,12.30
2018,08,21,06,37,12.30
2018,08,21,06,38,12.30
2018,08,21,06,39,12.30
2018,08,21,06,40,12.30
2018,08,21,06,41,12.30
2018,08,21,06,42,12.30
2018,08,21,06,43,12.30
2018,08,21,06,44,12.30
2018,08,21,06,45,12.30
2018,08,21,06,46,12.30
2018,08,21,06,47,12.30
2018,08,21,06,48,12.30
2018,08,21,06,49,12.30
2018,08,21,06,50,12.30
2018,08,21,06,51,12.30
2018,08,21,06,52,12.30
2018,08,21,06,53,12.30
2018,08,21,06,54,12.30
2018,08,21,06,55,12.40
2018,08,21,06,56,12.40
2018,08,21,06,57,12.40
2018,08,21,06,58,12.40
2018,08,21,06,59,12.50
2018,08,21,07,00,12.50
2018,08,21,07,01,12.50
2018,08,21,07,02,12.60
2018,08,21,07,03,12.60
2018,08,21,07,04,12.60
2018,08,21,07,05,12.70
2018,08,21,07,06,12.70
2018,08,21,07,07,12.70
2018,08,21,07,08,12.70
2018,08,21,07,09,12.80
2018,08,21,07,10,12.80
2018,08,21,07,11,12.80
2018,08,21,07,12,12.80
2018,08,21,07,13,12.80
2018,08,21,07,14,12.80
2018,08,21,07,15,12.80
2018,08,21,07,16,12.80
2018,08,21,07,17,12.80
2018,08,21,07,18,12.80
2018,08,21,07,19,12.80
2018,08,21,07,20,12.80
2018,08,21,07,21,12.80
2018,08,21,07,22,12.80
2018,08,21,07,23,12.80
2018,08,21,07,24,12.80
2018,08,21,07,25,12.80
2018,08,21,07,26,12.80
2018,08,21,07,27,12.90
2018,08,21,07,28,12.90
2018,08,21,07,29,12.90
2018,08,21,07,30,12.90
2018,08,21,07,31,12.90
2018,08,21,07,32,12.90
2018,08,21,07,33,12.90
2018,08,21,07,34,12.90
2018,08,21,07,35,13.00
2018,08,21,07,36,13.00
2018,08,21,07,37,13.00
2018,08,21,07,38,13.00
2018,08,21,07,39,13.10
2018,08,21,07,40,13.10
2018,08,21,07,41,13.10
2018,08,21,07,42,13.10
2018,08,21,07,43,13.10
2018,08,21,07,44,13.20
2018,08,21,07,45,13.20
2018,08,21,07,46,13.20
2018,08,21,07,47,13.20
2018,08,21,07,48,13.30
2018,08,21,07,49,13.30
2018,08,21,07,50,13.30
2018,08,21,07,51,13.40
2018,08,21,07,52,13.40
2018,08,21,07,53,13.40
2018,08,21,07,54,13.40
2018,08,21,07,55,13.50
2018,08,21,07,56,13.50
2018,08,21,07,57,13.60
2018,08,21,07,58,13.60
2018,08,21,07,59,13.60
2018,08,21,08,00,13.70
2018,08,21,08,01,13.70
2018,08,21,08,02,13.70
2018,08,21,08,03,13.80
2018,08,21,08,04,13.80
2018,08,21,08,05,13.90
2018,08,21,08,06,13.90
2018,08,21,08,07,14.00
2018,08,21,08,08,14.10
2018,08,21,08,09,14.10
2018,08,21,08,10,14.20
2018,08,21,08,11,14.20
2018,08,21,08,12,14.30
2018,08,21,08,13,14.30
2018,08,21,08,14,14.30
2018,08,21,08,15,14.40
2018,08,21,08,16,14.40
2018,08,21,08,17,14.50
2018,08,21,08,18,14.60
2018,08,21,08,19,14.60
2018,08,21,08,20,14.70
2018,08,21,08,21,14.70
2018,08,21,08,22,14.80
2018,08,21,08,23,14.80
2018,08,21,08,24,14.90
2018,08,21,08,25,14.90
2018,08,21,08,26,15.00
2018,08,21,08,27,15.00
2018,08,21,08,28,15.10
2018,08,21,08,29,15.10
2018,08,21,08,30,15.20
2018,08,21,08,31,15.20
2018,08,21,08,32,15.30
2018,08,21,08,33,15.30
2018,08,21,08,34,15.40
2018,08,21,08,35,15.40
2018,08,21,08,36,15.50
2018,08,21,08,37,15.60
2018,08,21,08,38,15.60
2018,08,21,08,39,15.70
2018,08,21,08,40,15.80
2018,08,21,08,41,15.90
2018,08,21,08,42,16.00
2018,08,21,08,43,16.10
2018,08,21,08,44,16.30
2018,08,21,08,45,16.30
2018,08,21,08,46,16.50
2018,08,21,08,47,16.60
2018,08,21,08,48,16.70
2018,08,21,08,49,16.90
2018,08,21,08,50,17.00
2018,08,21,08,51,17.10
2018,08,21,08,52,17.20
2018,08,21,08,53,17.30
2018,08,21,08,54,17.40
2018,08,21,08,55,17.50
2018,08,21,08,56,17.60
2018,08,21,08,57,17.70
2018,08,21,08,58,17.70
2018,08,21,08,59,17.80
2018,08,21,09,00,17.90
2018,08,21,09,01,18.00
2018,08,21,09,02,18.00
2018,08,21,09,03,18.10
2018,08,21,09,04,18.10
2018,08,21,09,05,18.20
2018,08,21,09,06,18.20
2018,08,21,09,07,18.30
2018,08,21,09,08,18.30
2018,08,21,09,09,18.30
2018,08,21,09,10,18.30
2018,08,21,09,11,18.40
2018,08,21,09,12,18.40
2018,08,21,09,13,18.40
2018,08,21,09,14,18.50
2018,08,21,09,15,18.50
2018,08,21,09,16,18.60
2018,08,21,09,17,18.60
2018,08,21,09,18,18.60
2018,08,21,09,19,18.60
2018,08,21,09,20,18.70
2018,08,21,09,21,18.70
2018,08,21,09,22,18.80
2018,08,21,09,23,18.80
2018,08,21,09,24,18.90
2018,08,21,09,25,18.90
2018,08,21,09,26,18.90
2018,08,21,09,27,19.00
2018,08,21,09,28,19.00
2018,08,21,09,29,19.10
2018,08,21,09,30,19.10
2018,08,21,09,31,19.20
2018,08,21,09,32,19.20
2018,08,21,09,33,19.30
2018,08,21,09,34,19.30
2018,08,21,09,35,19.30
2018,08,21,09,36,19.40
2018,08,21,09,37,19.40
2018,08,21,09,38,19.50
2018,08,21,09,39,19.50
2018,08,21,09,40,19.60
2018,08,21,09,41,19.60
2018,08,21,09,42,19.70
2018,08,21,09,43,19.70
2018,08,21,09,44,19.70
2018,08,21,09,45,19.80
2018,08,21,09,46,19.80
2018,08,21,09,47,19.80
2018,08,21,09,48,19.90
2018,08,21,09,49,19.90
2018,08,21,09,50,20.00
2018,08,21,09,51,20.00
2018,08,21,09,52,20.00
2018,08,21,09,53,20.10
2018,08,21,09,54,20.10
2018,08,21,09,55,20.10
2018,08,21,09,56,20.10
2018,08,21,09,57,20.10
2018,08,21,09,58,20.10
2018,08,21,09,59,20.20
2018,08,21,10,00,20.20
2018,08,21,10,01,20.20
2018,08,21,10,02,20.30
2018,08,21,10,03,20.30
2018,08,21,10,04,20.30
2018,08,21,10,05,20.40
2018,08,21,10,06,20.40
2018,08,21,10,07,20.40
2018,08,21,10,08,20.50
2018,08,21,10,09,20.50
2018,08,21,10,10,20.50
2018,08,21,10,11,20.60
2018,08,21,10,12,20.60
2018,08,21,10,13,20.60
2018,08,21,10,14,20.70
2018,08,21,10,15,20.80
2018,08,21,10,16,20.80
2018,08,21,10,17,20.90
2018,08,21,10,18,20.90
2018,08,21,10,19,21.00
2018,08,21,10,20,21.10
2018,08,21,10,21,21.10
2018,08,21,10,22,21.20
2018,08,21,10,23,21.20
2018,08,21,10,24,21.30
2018,08,21,10,25,21.30
2018,08,21,10,26,21.40
2018,08,21,10,27,21.50
2018,08,21,10,28,21.60
2018,08,21,10,29,21.60
2018,08,21,10,30,21.70
2018,08,21,10,31,21.80
2018,08,21,10,32,21.80
2018,08,21,10,33,21.90
2018,08,21,10,34,21.90
2018,08,21,10,35,22.00
2018,08,21,10,36,22.10
2018,08,21,10,37,22.10
2018,08,21,10,38,22.20
2018,08,21,10,39,22.20
2018,08,21,10,40,22.20
2018,08,21,10,41,22.30
2018,08,21,10,42,22.30
2018,08,21,10,43,22.30
2018,08,21,10,44,22.30
2018,08,21,10,45,22.30
2018,08,21,10,46,22.30
2018,08,21,10,47,22.30
2018,08,21,10,48,22.30
2018,08,21,10,49,22.40
2018,08,21,10,50,22.40
2018,08,21,10,51,22.40
2018,08,21,10,52,22.40
2018,08,21,10,53,22.50
2018,08,21,10,54,22.50
2018,08,21,10,55,22.50
2018,08,21,10,56,22.60
2018,08,21,10,57,22.60
2018,08,21,10,58,22.70
2018,08,21,10,59,22.70
2018,08,21,11,00,22.70
2018,08,21,11,01,22.70
2018,08,21,11,02,22.70
2018,08,21,11,03,22.70
2018,08,21,11,04,22.70
2018,08,21,11,05,22.80
2018,08,21,11,06,22.80
2018,08,21,11,07,22.80
2018,08,21,11,08,22.80
2018,08,21,11,09,22.80
2018,08,21,11,10,22.80
2018,08,21,11,11,22.80
2018,08,21,11,12,22.90
2018,08,21,11,13,22.90
2018,08,21,11,14,22.90
2018,08,21,11,15,22.80
2018,08,21,11,16,22.80
2018,08,21,11,17,22.80
2018,08,21,11,18,22.80
2018,08,21,11,19,22.80
2018,08,21,11,20,22.80
2018,08,21,11,21,22.80
2018,08,21,11,22,22.90
2018,08,21,11,23,22.90
2018,08,21,11,24,22.90
2018,08,21,11,25,23.00
2018,08,21,11,26,23.00
2018,08,21,11,27,23.10
2018,08,21,11,28,23.10
2018,08,21,11,29,23.10
2018,08,21,11,30,23.10
2018,08,21,11,31,23.10
2018,08,21,11,32,23.10
2018,08,21,11,33,23.10
2018,08,21,11,34,23.20
2018,08,21,11,35,23.20
2018,08,21,11,36,23.20
2018,08,21,11,37,23.20
2018,08,21,11,38,23.20
2018,08,21,11,39,23.20
2018,08,21,11,40,23.20
2018,08,21,11,41,23.30
2018,08,21,11,42,23.20
2018,08,21,11,43,23.20
2018,08,21,11,44,23.20
2018,08,21,11,45,23.10
2018,08,21,11,46,23.10
2018,08,21,11,47,23.10
2018,08,21,11,48,23.10
2018,08,21,11,49,23.10
2018,08,21,11,50,23.20
2018,08,21,11,51,23.20
2018,08,21,11,52,23.20
2018,08,21,11,53,23.30
2018,08,21,11,54,23.30
2018,08,21,11,55,23.40
2018,08,21,11,56,23.40
2018,08,21,11,57,23.50
2018,08,21,11,58,23.40
2018,08,21,11,59,23.40
2018,08,21,12,00,23.40
2018,08,21,12,01,23.50
2018,08,21,12,02,23.50
2018,08,21,12,03,23.60
2018,08,21,12,04,23.60
2018,08,21,12,05,23.60
2018,08,21,12,06,23.60
2018,08,21,12,07,23.70
2018,08,21,12,08,23.70
2018,08,21,12,09,23.70
2018,08,21,12,10,23.80
2018,08,21,12,11,23.80
2018,08,21,12,12,23.80
2018,08,21,12,13,23.90
2018,08,21,12,14,23.90
2018,08,21,12,15,24.00
2018,08,21,12,16,24.00
2018,08,21,12,17,24.00
2018,08,21,12,18,24.10
2018,08,21,12,19,24.10
2018,08,21,12,20,24.10
2018,08,21,12,21,24.10
2018,08,21,12,22,24.20
2018,08,21,12,23,24.20
2018,08,21,12,24,24.20
2018,08,21,12,25,24.30
2018,08,21,12,26,24.30
2018,08,21,12,27,24.40
2018,08,21,12,28,24.50
2018,08,21,12,29,24.50
2018,08,21,12,30,24.60
2018,08,21,12,31,24.70
2018,08,21,12,32,24.70
2018,08,21,12,33,24.70
2018,08,21,12,34,24.80
2018,08,21,12,35,24.80
2018,08,21,12,36,24.90
2018,08,21,12,37,24.90
2018,08,21,12,38,25.00
2018,08,21,12,39,25.10
2018,08,21,12,40,25.10
2018,08,21,12,41,25.20
2018,08,21,12,42,25.20
2018,08,21,12,43,25.30
2018,08,21,12,44,25.40
2018,08,21,12,45,25.50
2018,08,21,12,46,25.50
2018,08,21,12,47,25.60
2018,08,21,12,48,25.60
2018,08,21,12,49,25.60
2018,08,21,12,50,25.70
2018,08,21,12,51,25.70
2018,08,21,12,52,25.80
2018,08,21,12,53,25.80
2018,08,21,12,54,25.80
2018,08,21,12,55,25.80
2018,08,21,12,56,25.80
2018,08,21,12,57,25.80
2018,08,21,12,58,25.80
2018,08,21,12,59,25.80
2018,08,21,13,00,25.80
2018,08,21,13,01,25.90
2018,08,21,13,02,25.90
2018,08,21,13,03,25.90
2018,08,21,13,04,25.90
2018,08,21,13,05,26.00
2018,08,21,13,06,26.10
2018,08,21,13,07,26.10
2018,08,21,13,08,26.10
2018,08,21,13,09,26.20
2018,08,21,13,10,26.20
2018,08,21,13,11,26.20
2018,08,21,13,12,26.30
2018,08,21,13,13,26.40
2018,08,21,13,14,26.40
2018,08,21,13,15,26.40
2018,08,21,13,16,26.40
2018,08,21,13,17,26.40
2018,08,21,13,18,26.40
2018,08,21,13,19,26.40
2018,08,21,13,20,26.50
2018,08,21,13,21,26.50
2018,08,21,13,22,26.50
2018,08,21,13,23,26.60
2018,08,21,13,24,26.60
2018,08,21,13,25,26.60
2018,08,21,13,26,26.70
2018,08,21,13,27,26.70
2018,08,21,13,28,26.70
2018,08,21,13,29,26.70
2018,08,21,13,30,26.80
2018,08,21,13,31,26.80
2018,08,21,13,32,26.80
2018,08,21,13,33,26.80
2018,08,21,13,34,26.80
2018,08,21,13,35,26.90
2018,08,21,13,36,26.90
2018,08,21,13,37,27.00
2018,08,21,13,38,27.00
2018,08,21,13,39,27.10
2018,08,21,13,40,27.20
2018,08,21,13,41,27.30
2018,08,21,13,42,27.40
2018,08,21,13,43,27.50
2018,08,21,13,44,27.60
2018,08,21,13,45,27.70
2018,08,21,13,46,27.70
2018,08,21,13,47,27.80
2018,08,21,13,48,27.90
2018,08,21,13,49,28.00
2018,08,21,13,50,28.00
2018,08,21,13,51,28.10
2018,08,21,13,52,28.20
2018,08,21,13,53,28.20
2018,08,21,13,54,28.30
2018,08,21,13,55,28.20
2018,08,21,13,56,28.20
2018,08,21,13,57,28.20
2018,08,21,13,58,28.20
2018,08,21,13,59,28.20
2018,08,21,14,00,28.30
2018,08,21,14,01,28.30
2018,08,21,14,02,28.40
2018,08,21,14,03,28.50
2018,08,21,14,04,28.50
2018,08,21,14,05,28.60
2018,08,21,14,06,28.60
2018,08,21,14,07,28.70
2018,08,21,14,08,28.70
2018,08,21,14,09,28.70
2018,08,21,14,10,28.80
2018,08,21,14,11,28.80
2018,08,21,14,12,28.80
2018,08,21,14,13,28.80
2018,08,21,14,14,28.80
2018,08,21,14,15,28.80
2018,08,21,14,16,28.80
2018,08,21,14,17,28.90
2018,08,21,14,18,28.90
2018,08,21,14,19,29.00
2018,08,21,14,20,29.00
2018,08,21,14,21,29.10
2018,08,21,14,22,29.20
2018,08,21,14,23,29.20
2018,08,21,14,24,29.30
2018,08,21,14,25,29.30
2018,08,21,14,26,29.30
2018,08,21,14,27,29.30
2018,08,21,14,28,29.30
2018,08,21,14,29,29.40
2018,08,21,14,30,29.40
2018,08,21,14,31,29.50
2018,08,21,14,32,29.50
2018,08,21,14,33,29.50
2018,08,21,14,34,29.50
2018,08,21,14,35,29.60
2018,08,21,14,36,29.70
2018,08,21,14,37,29.70
2018,08,21,14,38,29.70
2018,08,21,14,39,29.80
2018,08,21,14,40,29.80
2018,08,21,14,41,29.90
2018,08,21,14,42,29.90
2018,08,21,14,43,30.00
2018,08,21,14,44,30.00
2018,08,21,14,45,30.10
2018,08,21,14,46,30.10
2018,08,21,14,47,30.10
2018,08,21,14,48,30.10
2018,08,21,14,49,30.20
2018,08,21,14,50,30.10
2018,08,21,14,51,30.10
2018,08,21,14,52,30.00
2018,08,21,14,53,30.00
2018,08,21,14,54,29.90
2018,08,21,14,55,29.90
2018,08,21,14,56,29.90
2018,08,21,14,57,29.80
2018,08,21,14,58,29.80
2018,08,21,14,59,29.90
2018,08,21,15,00,29.90
2018,08,21,15,01,30.00
2018,08,21,15,02,30.10
2018,08,21,15,03,30.10
2018,08,21,15,04,30.10
2018,08,21,15,05,30.20
2018,08,21,15,06,30.30
2018,08,21,15,07,30.30
2018,08,21,15,08,30.40
2018,08,21,15,09,30.40
2018,08,21,15,10,30.50
2018,08,21,15,11,30.60
2018,08,21,15,12,30.60
2018,08,21,15,13,30.60
2018,08,21,15,14,30.60
2018,08,21,15,15,30.70
2018,08,21,15,16,30.70
2018,08,21,15,17,30.70
2018,08,21,15,18,30.80
2018,08,21,15,19,30.80
2018,08,21,15,20,30.80
2018,08,21,15,21,30.80
2018,08,21,15,22,30.80
2018,08,21,15,23,30.80
2018,08,21,15,24,30.70
2018,08,21,15,25,30.70
2018,08,21,15,26,30.70
2018,08,21,15,27,30.60
2018,08,21,15,28,30.70
2018,08,21,15,29,30.70
2018,08,21,15,30,30.70
2018,08,21,15,31,30.60
2018,08,21,15,32,30.60
2018,08,21,15,33,30.50
2018,08,21,15,34,30.40
2018,08,21,15,35,30.40
2018,08,21,15,36,30.30
2018,08,21,15,37,30.30
2018,08,21,15,38,30.20
2018,08,21,15,39,30.20
2018,08,21,15,40,30.20
2018,08,21,15,41,30.20
2018,08,21,15,42,30.20
2018,08,21,15,43,30.20
2018,08,21,15,44,30.20
2018,08,21,15,45,30.20
2018,08,21,15,46,30.30
2018,08,21,15,47,30.30
2018,08,21,15,48,30.40
2018,08,21,15,49,30.40
2018,08,21,15,50,30.50
2018,08,21,15,51,30.50
2018,08,21,15,52,30.60
2018,08,21,15,53,30.60
2018,08,21,15,54,30.70
2018,08,21,15,55,30.80
2018,08,21,15,56,30.80
2018,08,21,15,57,30.90
2018,08,21,15,58,30.90
2018,08,21,15,59,30.90
2018,08,21,16,00,30.90
2018,08,21,16,01,30.90
2018,08,21,16,02,30.90
2018,08,21,16,03,30.90
2018,08,21,16,04,30.80
2018,08,21,16,05,30.80
2018,08,21,16,06,30.80
2018,08,21,16,07,30.80
2018,08,21,16,08,30.90
2018,08,21,16,09,30.90
2018,08,21,16,10,31.00
2018,08,21,16,11,31.00
2018,08,21,16,12,31.10
2018,08,21,16,13,31.10
2018,08,21,16,14,31.20
2018,08,21,16,15,31.30
2018,08,21,16,16,31.30
2018,08,21,16,17,31.30
2018,08,21,16,18,31.30
2018,08,21,16,19,31.40
2018,08,21,16,20,31.40
2018,08,21,16,21,31.40
2018,08,21,16,22,31.40
2018,08,21,16,23,31.40
2018,08,21,16,24,31.40
2018,08,21,16,25,31.40
2018,08,21,16,26,31.40
2018,08,21,16,27,31.40
2018,08,21,16,28,31.40
2018,08,21,16,29,31.40
2018,08,21,16,30,31.40
2018,08,21,16,31,31.40
2018,08,21,16,32,31.40
2018,08,21,16,33,31.40
2018,08,21,16,34,31.40
2018,08,21,16,35,31.40
2018,08,21,16,36,31.50
2018,08,21,16,37,31.50
2018,08,21,16,38,31.50
2018,08,21,16,39,31.50
2018,08,21,16,40,31.50
2018,08,21,16,41,31.60
2018,08,21,16,42,31.60
2018,08,21,16,43,31.60
2018,08,21,16,44,31.60
2018,08,21,16,45,31.60
2018,08,21,16,46,31.60
2018,08,21,16,47,31.50
2018,08,21,16,48,31.50
2018,08,21,16,49,31.40
2018,08,21,16,50,31.40
2018,08,21,16,51,31.40
2018,08,21,16,52,31.40
2018,08,21,16,53,31.30
2018,08,21,16,54,31.40
2018,08,21,16,55,31.40
2018,08,21,16,56,31.40
2018,08,21,16,57,31.40
2018,08,21,16,58,31.40
2018,08,21,16,59,31.40
2018,08,21,17,00,31.40
2018,08,21,17,01,31.40
2018,08,21,17,02,31.40
2018,08,21,17,03,31.40
2018,08,21,17,04,31.40
2018,08,21,17,05,31.40
2018,08,21,17,06,31.50
2018,08,21,17,07,31.50
2018,08,21,17,08,31.50
2018,08,21,17,09,31.50
2018,08,21,17,10,31.50
2018,08,21,17,11,31.50
2018,08,21,17,12,31.50
2018,08,21,17,13,31.50
2018,08,21,17,14,31.50
2018,08,21,17,15,31.50
2018,08,21,17,16,31.50
2018,08,21,17,17,31.50
2018,08,21,17,18,31.50
2018,08,21,17,19,31.50